| time (UTC) | temp F | wind direction | speed knots | gust knots | rain 1hr in | rain 24hr in | rain mn in | humidity % | barometer mb |
| 20260505152726 | 74 | 156 | 9.6 | 24.3 | 0.00 | 0.01 | 0.01 | 49 | 1007.7 |
| 20260505150519 | 73 | 168 | 9.6 | 25.2 | 0.00 | 0.01 | 0.01 | 49 | 1007.7 |
| 20260505140538 | 71 | 178 | 10.4 | 21.7 | 0.00 | 0.01 | 0.01 | 54 | 1008.7 |
| 20260505130239 | 68 | 141 | 1.7 | 5.2 | 0.00 | 0.01 | 0.01 | 61 | 1008.5 |
| 20260505124326 | 66 | 148 | 2.6 | 7.8 | 0.00 | 0.01 | 0.01 | 64 | 1008.6 |
| 20260505123256 | 66 | 140 | 2.6 | 9.6 | 0.00 | 0.01 | 0.01 | 65 | 1008.7 |
| 20260505122258 | 65 | 127 | 2.6 | 9.6 | 0.00 | 0.01 | 0.01 | 66 | 1008.8 |
| 20260505121245 | 64 | 168 | 1.7 | 7.8 | 0.00 | 0.01 | 0.01 | 67 | 1008.8 |
| 20260505114041 | 63 | 158 | 1.7 | 5.2 | 0.00 | 0.01 | 0.01 | 70 | 1008.8 |
| 20260505113012 | 62 | 179 | 0.9 | 3.5 | 0.00 | 0.01 | 0.01 | 72 | 1008.8 |
| 20260505112017 | 61 | 89 | 0.0 | 1.7 | 0.00 | 0.01 | 0.01 | 75 | 1008.6 |
| 20260505111005 | 60 | 112 | 0.0 | 2.6 | 0.00 | 0.01 | 0.01 | 76 | 1008.6 |
| 20260505101840 | 58 | 154 | 0.0 | 0.9 | 0.00 | 0.01 | 0.01 | 81 | 1008.0 |
| 20260505100851 | 58 | 120 | 0.0 | 0.9 | 0.00 | 0.01 | 0.01 | 83 | 1007.9 |
| 20260505095830 | 57 | 144 | 0.0 | 0.0 | 0.00 | 0.01 | 0.01 | 85 | 1007.8 |
| 20260505093747 | 56 | 148 | 0.0 | 1.7 | 0.00 | 0.01 | 0.01 | 90 | 1007.6 |
| 20260505091608 | 57 | 163 | 0.0 | 0.0 | 0.00 | 0.01 | 0.01 | 88 | 1007.5 |
| 20260505090633 | 57 | 163 | 0.0 | 0.0 | 0.00 | 0.01 | 0.01 | 87 | 1007.4 |
| 20260505085622 | 57 | 163 | 0.0 | 0.0 | 0.00 | 0.01 | 0.01 | 86 | 1007.4 |
| 20260505084620 | 58 | 163 | 0.0 | 0.0 | 0.00 | 0.01 | 0.01 | 84 | 1007.4 |
| 20260505083625 | 58 | 163 | 0.0 | 0.0 | 0.00 | 0.01 | 0.01 | 84 | 1007.4 |
| 20260505082609 | 58 | 146 | 0.0 | 0.0 | 0.00 | 0.01 | 0.01 | 83 | 1007.4 |
| 20260505081627 | 59 | 144 | 0.0 | 0.0 | 0.00 | 0.01 | 0.01 | 83 | 1007.4 |
| 20260505080648 | 60 | 111 | 0.0 | 0.0 | 0.00 | 0.01 | 0.01 | 80 | 1007.6 |
| 20260505075655 | 61 | 227 | 0.0 | 0.0 | 0.00 | 0.01 | 0.01 | 76 | 1007.7 |
| 20260505074642 | 61 | 227 | 0.0 | 0.0 | 0.00 | 0.01 | 0.01 | 75 | 1007.8 |
| 20260505073611 | 62 | 96 | 0.0 | 0.0 | 0.00 | 0.00 | 0.01 | 71 | 1007.7 |
| 20260505072614 | 63 | 165 | 2.6 | 6.1 | 0.00 | 0.00 | 0.00 | 66 | 1007.9 |
| 20260505071632 | 63 | 210 | 2.6 | 6.1 | 0.00 | 0.00 | 0.00 | 67 | 1007.6 |
| 20260505070627 | 62 | 164 | 0.9 | 3.5 | 0.00 | 0.00 | 0.00 | 69 | 1007.0 |
| 20260505065645 | 62 | 168 | 0.0 | 4.3 | 0.00 | 0.00 | 0.00 | 69 | 1006.8 |
| 20260505064615 | 62 | 171 | 0.9 | 4.3 | 0.00 | 0.00 | 0.00 | 69 | 1006.8 |
| 20260505063635 | 62 | 120 | 0.0 | 2.6 | 0.00 | 0.00 | 0.00 | 69 | 1006.8 |
| 20260505062629 | 62 | 161 | 0.0 | 3.5 | 0.00 | 0.00 | 0.00 | 68 | 1006.9 |
| 20260505061625 | 62 | 165 | 0.0 | 3.5 | 0.00 | 0.00 | 0.00 | 68 | 1006.9 |
| 20260505060559 | 62 | 203 | 0.0 | 0.9 | 0.00 | 0.00 | 0.00 | 67 | 1006.9 |
| 20260505055531 | 63 | 185 | 0.0 | 3.5 | 0.00 | 0.00 | 0.00 | 67 | 1007.1 |
| 20260505054545 | 62 | 191 | 0.0 | 3.5 | 0.00 | 0.00 | 0.00 | 67 | 1007.2 |
| 20260505053537 | 62 | 137 | 0.0 | 0.0 | 0.00 | 0.00 | 0.00 | 68 | 1007.2 |
| 20260505052601 | 62 | 153 | 0.0 | 0.0 | 0.00 | 0.00 | 0.00 | 68 | 1007.2 |
| 20260505051616 | 62 | 154 | 0.0 | 3.5 | 0.00 | 0.00 | 0.00 | 67 | 1007.2 |
| 20260505050556 | 62 | 165 | 0.0 | 1.7 | 0.00 | 0.00 | 0.00 | 68 | 1007.3 |
| 20260505041549 | 61 | 172 | 0.0 | 0.0 | 0.00 | 0.00 | 0.00 | 69 | 1007.1 |
| 20260505040552 | 61 | 192 | 0.0 | 0.9 | 0.00 | 0.00 | 0.00 | 69 | 1007.2 |
| 20260505034433 | 62 | 101 | 0.0 | 0.0 | 0.00 | 0.00 | 0.00 | 67 | 1007.1 |
| 20260505033419 | 63 | 142 | 0.0 | 0.0 | 0.00 | 0.00 | 0.00 | 65 | 1007.2 |
| 20260505032439 | 63 | 171 | 0.0 | 0.9 | 0.00 | 0.00 | 0.00 | 65 | 1007.2 |
| 20260505031442 | 64 | 165 | 0.0 | 0.9 | 0.00 | 0.00 | 0.00 | 64 | 1007.3 |
| 20260505025410 | 64 | 165 | 0.0 | 0.0 | 0.00 | 0.00 | 0.00 | 63 | 1007.4 |
| 20260505024346 | 64 | 201 | 0.0 | 1.7 | 0.00 | 0.00 | 0.00 | 63 | 1007.3 |
| 20260505023350 | 65 | 107 | 0.0 | 1.7 | 0.00 | 0.00 | 0.00 | 62 | 1007.4 |
| 20260505022324 | 65 | 175 | 0.0 | 0.9 | 0.00 | 0.00 | 0.00 | 62 | 1007.4 |
| 20260505021346 | 66 | 118 | 0.0 | 0.9 | 0.00 | 0.00 | 0.00 | 60 | 1007.5 |
| 20260505020409 | 66 | 139 | 0.9 | 2.6 | 0.00 | 0.00 | 0.00 | 60 | 1007.5 |
| 20260505014311 | 67 | 156 | 1.7 | 6.1 | 0.00 | 0.00 | 0.00 | 58 | 1007.6 |
| 20260505013318 | 67 | 144 | 1.7 | 5.2 | 0.00 | 0.00 | 0.00 | 58 | 1007.5 |
| 20260505011159 | 68 | 165 | 1.7 | 8.7 | 0.00 | 0.00 | 0.00 | 57 | 1007.2 |
| 20260505005042 | 69 | 148 | 1.7 | 7.8 | 0.00 | 0.00 | 0.00 | 56 | 1007.0 |
| 20260505004012 | 69 | 137 | 1.7 | 5.2 | 0.00 | 0.00 | 0.00 | 55 | 1006.9 |
| 20260505002942 | 69 | 133 | 1.7 | 6.1 | 0.00 | 0.00 | 0.00 | 55 | 1006.6 |
| 20260505001911 | 69 | 180 | 1.7 | 6.1 | 0.00 | 0.00 | 0.00 | 54 | 1006.8 |
| 20260505000907 | 69 | 151 | 2.6 | 8.7 | 0.00 | 0.00 | 0.00 | 54 | 1006.9 |
| 20260504235906 | 70 | 177 | 3.5 | 10.4 | 0.00 | 0.00 | 0.00 | 53 | 1006.8 |
| 20260504234901 | 70 | 153 | 4.3 | 10.4 | 0.00 | 0.00 | 0.00 | 53 | 1006.8 |
| 20260504233906 | 70 | 178 | 2.6 | 9.6 | 0.00 | 0.00 | 0.00 | 53 | 1006.6 |
| 20260504232841 | 71 | 178 | 5.2 | 12.2 | 0.00 | 0.00 | 0.00 | 52 | 1006.7 |
| 20260504231820 | 71 | 164 | 6.1 | 13.9 | 0.00 | 0.00 | 0.00 | 52 | 1007.0 |
| 20260504230812 | 71 | 171 | 6.1 | 13.9 | 0.00 | 0.00 | 0.00 | 51 | 1006.7 |
| 20260504225745 | 72 | 171 | 4.3 | 20.0 | 0.00 | 0.00 | 0.00 | 50 | 1006.7 |
| 20260504224743 | 72 | 191 | 7.0 | 20.0 | 0.00 | 0.00 | 0.00 | 49 | 1006.8 |
| 20260504223803 | 72 | 219 | 4.3 | 13.9 | 0.00 | 0.00 | 0.00 | 50 | 1006.9 |
| 20260504220538 | 72 | 167 | 6.1 | 13.9 | 0.00 | 0.00 | 0.00 | 49 | 1006.6 |
| 20260504215551 | 72 | 148 | 4.3 | 11.3 | 0.00 | 0.00 | 0.00 | 49 | 1006.6 |
| 20260504214534 | 72 | 168 | 3.5 | 15.6 | 0.00 | 0.00 | 0.00 | 50 | 1006.5 |
| 20260504213544 | 72 | 172 | 6.1 | 15.6 | 0.00 | 0.00 | 0.00 | 49 | 1006.5 |
| 20260504212553 | 72 | 215 | 5.2 | 11.3 | 0.00 | 0.00 | 0.00 | 48 | 1006.6 |
| 20260504211608 | 73 | 168 | 4.3 | 9.6 | 0.00 | 0.00 | 0.00 | 49 | 1006.6 |
| 20260504210535 | 73 | 175 | 4.3 | 11.3 | 0.00 | 0.00 | 0.00 | 48 | 1006.6 |
| 20260504205500 | 73 | 178 | 7.0 | 14.8 | 0.00 | 0.00 | 0.00 | 47 | 1006.6 |
| 20260504204434 | 73 | 125 | 7.8 | 17.4 | 0.00 | 0.00 | 0.00 | 47 | 1006.6 |
| 20260504203434 | 74 | 163 | 6.1 | 19.1 | 0.00 | 0.00 | 0.00 | 45 | 1006.7 |
| 20260504202421 | 73 | 168 | 7.8 | 19.1 | 0.00 | 0.00 | 0.00 | 47 | 1006.7 |
| 20260504201350 | 73 | 195 | 5.2 | 14.8 | 0.00 | 0.00 | 0.00 | 47 | 1006.7 |
| 20260504195252 | 72 | 188 | 6.1 | 14.8 | 0.00 | 0.00 | 0.00 | 50 | 1006.8 |
| 20260504194311 | 71 | 164 | 6.1 | 15.6 | 0.00 | 0.00 | 0.00 | 50 | 1006.9 |
| 20260504193308 | 72 | 191 | 7.8 | 15.6 | 0.00 | 0.00 | 0.00 | 48 | 1006.9 |
| 20260504192256 | 72 | 205 | 6.1 | 14.8 | 0.00 | 0.00 | 0.00 | 50 | 1007.0 |
| 20260504190109 | 72 | 63 | 7.0 | 16.5 | 0.00 | 0.00 | 0.00 | 49 | 1007.1 |
| 20260504185047 | 72 | 179 | 6.1 | 16.5 | 0.00 | 0.00 | 0.00 | 49 | 1007.2 |
| 20260504184047 | 72 | 178 | 6.1 | 15.6 | 0.00 | 0.00 | 0.00 | 49 | 1007.4 |
| 20260504183022 | 72 | 139 | 7.8 | 15.6 | 0.00 | 0.00 | 0.00 | 49 | 1007.6 |
| 20260504180931 | 71 | 185 | 6.1 | 14.8 | 0.00 | 0.00 | 0.00 | 48 | 1007.8 |
| 20260504175900 | 71 | 144 | 5.2 | 12.2 | 0.00 | 0.00 | 0.00 | 49 | 1007.9 |
| 20260504174852 | 71 | 179 | 2.6 | 13.9 | 0.00 | 0.00 | 0.00 | 50 | 1007.9 |
| 20260504173900 | 70 | 153 | 3.5 | 13.9 | 0.00 | 0.00 | 0.00 | 51 | 1008.1 |
| 20260504172835 | 69 | 164 | 5.2 | 10.4 | 0.00 | 0.00 | 0.00 | 49 | 1008.2 |
| 20260504170729 | 70 | 112 | 5.2 | 13.0 | 0.00 | 0.00 | 0.00 | 48 | 1008.3 |
| 20260504160411 | 68 | 156 | 4.3 | 11.3 | 0.00 | 0.00 | 0.00 | 50 | 1009.4 |